Overview Statistics Trail Chart Weather Telemetry Raw packets
 

This is the latest recevied weather packets stored in our database for station/object N7IGG. If no packets are shown the sender has not sent any weather packets the latest 10 day(s).

<< 24 25 26 27 28 29 30 >>
Time Temp. Humidity Pressure Rain* Wind** Luminosity Snow
1778018838 15° C 82% 1016.4 hPa 0 mm - 191 W/m² -
1778018536 15.56° C 82% 1016.6 hPa 0 mm - 174 W/m² -
1778018234 15.56° C 82% 1016.5 hPa 0 mm - 177 W/m² -
1778017932 15° C 82% 1016.6 hPa 0 mm - 185 W/m² -
1778017629 15.56° C 82% 1016.9 hPa 0 mm - 182 W/m² -
1778017326 15° C 82% 1016.7 hPa 0 mm - 174 W/m² -
1778017024 15° C 83% 1016.7 hPa 0 mm - 158 W/m² -
1778016720 15° C 82% 1016.6 hPa 0 mm - 157 W/m² -
1778016416 15° C 82% 1016.7 hPa 0 mm - 160 W/m² -
1778016114 15° C 82% 1016.7 hPa 0 mm - 164 W/m² -
1778015811 15° C 83% 1016.5 hPa 0 mm - 161 W/m² -
1778015508 15° C 83% 1016.6 hPa 0 mm - 168 W/m² -
1778015204 15° C 83% 1016.7 hPa 0 mm - 163 W/m² -
1778014901 15° C 83% 1016.8 hPa 0 mm - 141 W/m² -
1778014599 15° C 83% 1016.8 hPa 0 mm - 150 W/m² -
1778014297 15° C 83% 1016.9 hPa 0 mm - 153 W/m² -
1778013993 15° C 83% 1016.9 hPa 0 mm - 142 W/m² -
1778013691 15° C 83% 1016.9 hPa 0 mm - 148 W/m² -
1778013387 15° C 84% 1016.9 hPa 0 mm - 148 W/m² -
1778013085 15° C 83% 1016.8 hPa 0 mm - 146 W/m² -
1778012781 14.44° C 84% 1016.6 hPa 0 mm - 155 W/m² -
1778012477 14.44° C 84% 1016.6 hPa 0 mm - 146 W/m² -
1778012173 14.44° C 84% 1016.9 hPa 0 mm - 152 W/m² -
1778011871 14.44° C 84% 1016.8 hPa 0 mm - 139 W/m² -
1778011569 14.44° C 84% 1016.8 hPa 0 mm - 141 W/m² -

* Rain latest hour (hover to see other rain measurements)
** Current wind speed in m/s (hover to see current wind gust speed)